Regional Weather Roundup
Issued by NWS

Home | Current Version | Previous Version | Graphics & Text | Print | Product List | Glossary Off
Versions: 1 2 3 4 5 6 7 8 9 10 11 12 13 14 15 16 17 18 19 20 21 22 23 24 25 26 27 28 29 30 31 32 33 34 35 36 37 38 39 40 41 42 43 44 45 46 47 48 49 50

000
ASUS43 KDMX 260106
RWRIA

WEATHER ROUNDUP FOR IOWA
NATIONAL WEATHER SERVICE DES MOINES IA
800 PM CDT TUE APR 25 2017

NOTE: "FAIR" INDICATES FEW OR NO CLOUDS BELOW 12,000 FEET WITH NO
SIGNIFICANT WEATHER AND/OR OBSTRUCTIONS TO VISIBILITY.

* - THESE STATIONS ARE NOT NWS STATIONS...THUS NOT UNDER NWS
QUALITY CONTROL.  THEY ALSO DO NOT REPORT WEATHER SUCH
AS PRECIPITATION OR FOG.

IAZ001>003-012>014-020>022-031>034-043>046-260200-
   NORTHWEST IOWA

CITY           SKY/WX    TMP DP  RH WIND       PRES   REMARKS
CARROLL *      CLOUDY    46  45  93 N16G23    29.52R
CHEROKEE *     DRIZZLE   42  42 100 N13       29.57S
DENISON *      LGT RAIN  45  43  93 N9        29.56R
LE MARS *      LGT RAIN  41  41 100 N13G22    29.62R
ORANGE CITY *  LGT RAIN  39  39 100 N15       29.60R WCI  31
SHELDON *      LGT RAIN  41  39  93 NW16      29.58S
SIOUX CITY     CLOUDY    42  41  96 NW16      29.61R
SPENCER        LGT RAIN  42  41  96 N15       29.57R FOG
STORM LAKE *   MIX PCPN  41  41 100 N16       29.54S
$$

IAZ055>058-069>071-079>083-090>094-260200-
   SOUTHWEST IOWA

CITY           SKY/WX    TMP DP  RH WIND       PRES   REMARKS
ATLANTIC *     CLOUDY    48  45  87 N18       29.50F
AUDUBON *      CLOUDY    46  43  87 N16G23    29.51F
CLARINDA *     CLOUDY    54  46  76 N14G20    29.52R
COUNCIL BLFS * CLOUDY    43  43 100 NW16G24   29.55R
CRESTON *      CLOUDY    55  48  76 NW14      29.48R
HARLAN  *      CLOUDY    46  46 100 N20       29.55S FOG
LAMONI         CLOUDY    66  53  63 SW3       29.45R
RED OAK *      CLOUDY    50  45  81 NW15      29.52R
SHENANDOAH *   CLOUDY    48  45  87 NW14G22   29.54R
$$

IAZ047>049-059>061-072>074-084-260200-
   CENTRAL IOWA

CITY           SKY/WX    TMP DP  RH WIND       PRES   REMARKS
AMES           CLOUDY    66  52  60 SW3       29.43F
ANKENY *       CLOUDY    68  52  56 S3        29.43F
BOONE *        CLOUDY    55  52  88 N16       29.44S
CHARITON *     CLOUDY    66  54  63 W5        29.44S
DES MOINES     CLOUDY    64  51  62 W8        29.44R
GRINNELL*      CLOUDY    68  46  45 E3        29.44F
KNOXVILLE *    CLOUDY    68  52  56 SW6       29.42S
MARSHALLTOWN   CLOUDY    65  50  58 E3        29.43S
NEWTON *       CLOUDY    66  46  48 CALM      29.42S
PELLA *        CLOUDY    68  49  49 CALM      29.44S
PERRY *        CLOUDY    53  48  83 NW17G25   29.48R
$$

IAZ004>006-015-016-023>025-035-036-260200-
   NORTH CENTRAL IOWA

CITY           SKY/WX    TMP DP  RH WIND       PRES   REMARKS
ALGONA *       CLOUDY    46  46 100 N14G20    29.53R
CLARION *      CLOUDY    50  50 100 N14       29.49S
ESTHERVILLE    LGT RAIN  42  42 100 N15       29.54F FOG
FORT DODGE *   CLOUDY    46  39  76 N12G18    29.52R
MASON CITY     CLOUDY    53  50  89 N13       29.50S
FOREST CITY *  CLOUDY    46  46 100 N15G21    29.50S
WEBSTER CITY * CLOUDY    50  46  87 N18       29.47R
IOWA FALLS *   CLOUDY    66  48  52 CALM      29.46S
$$

IAZ007>011-017>019-026>030-037>042-050>054-066-260200-
   NORTHEAST IOWA

CITY           SKY/WX    TMP DP  RH WIND       PRES   REMARKS
CEDAR RAPIDS   CLOUDY    69  49  48 SE3       29.44S
CHARLES CITY * CLOUDY    63  52  67 SE5       29.47R
CLINTON *      PTCLDY    72  46  39 S8        29.48R
DECORAH *      CLOUDY    64  50  59 E9        29.46F
DUBUQUE        CLOUDY    69  43  38 SE8       29.48S
MONTICELLO *   CLOUDY    72  45  37 SE5       29.46R
OELWEIN *      CLOUDY    68  46  45 E7        29.46S
WATERLOO       CLOUDY    68  44  42 CALM      29.44S
$$

IAZ064-065-067-068-078-260200-
   EAST CENTRAL IOWA

CITY           SKY/WX    TMP DP  RH WIND       PRES   REMARKS
DAVENPORT      CLOUDY    69  47  45 SE8       29.47R
IOWA CITY      CLOUDY    74  48  39 CALM      29.45S
MT. PLEASANT * CLOUDY    70  48  44 E6        29.43F
MUSCATINE *    CLOUDY    72  50  46 CALM      29.45R
QUAD CITIES    MOCLDY    71  46  40 SE7       29.45S
$$

IAZ062-063-075>077-085>089-095>099-260200-
   SOUTHEAST IOWA

CITY           SKY/WX    TMP DP  RH WIND       PRES   REMARKS
BURLINGTON     CLOUDY    73  50  44 SE9       29.44R
FAIRFIELD *    CLOUDY    70  50  49 CALM      29.43S
FORT MADISON * CLOUDY    73  48  40 SE8       29.44S
KEOKUK *       MOCLDY    72  52  49 SE7       29.42S
OSKALOOSA *    CLOUDY    69  49  47 SE6       29.43S
CENTERVILLE *  MOCLDY    66  55  68 CALM      29.46R
OTTUMWA        CLOUDY    71  50  47 SE5       29.43S
WASHINGTON *   CLOUDY    72  48  43 SE3       29.45S
$$

ABBREVIATIONS USED IN REMARKS
   TC - TEMPERATURES IN CELSIUS
  WCI - WIND CHILL INDEX
   HX - HEAT INDEX
  VSB - VISIBILITY
$$





USA.gov is the U.S. government's official web portal to all federal, state and local government web resources and services.